Location: ??
(35.5052°N, 139.7262°E)
Time: 19:43:00
(UTC+00:00)

Cosmos 1932 - Pass Details

Date: 17 October 2021
Orbit: 943 x 987 km, 65.0° (Epoch: 01 December)

Event Time Altitude Azimuth Distance (km) Brightness Sun altitude
Rises 11:44:56 0° 332° (NNW) 3,616 8.0 -45.0°
Reaches altitude 10° 11:47:29 10° 334° (NNW) 2,672 7.2 -45.5°
Enters shadow 11:47:55 12° 335° (NNW) 2,515 7.0 -45.5°
